Location: Passau
(48.5830°N, 13.4830°E)
Time: 05:58:15
(UTC+02:00)

Vanguard 1 - Pass Details

Date: 02 August 2021
Orbit: 652 x 3831 km, 34.3° (Epoch: 16 September)

Event Time Altitude Azimuth Distance (km) Brightness Sun altitude
Rises 13:13:18 0° 241° (WSW) 3,211 12.9 59.1°
Reaches altitude 10° 13:15:46 10° 226° (SW) 2,482 12.6 59.0°
Maximum altitude 13:20:26 25° 172° (S) 2,055 12.8 59.0°
Drops below altitude 10° 13:27:17 10° 121° (ESE) 3,764 13.4 58.9°
Sets 13:32:05 0° 111° (ESE) 5,334 13.9 58.8°
